ETH736 LIMC-LSZH

Flight info

Callsign ETH736
Flight time 0h 35m
Altitude 26000
Route PEPAG2Q PEPAG DCT CANNE Z651 KELIP KELIP3G
Aircraft A359/H-SDE2E3GHIJ3J4J5LM1ORWXY/LB1D1

Departure

Time 2026-05-04 15:46
Airport Milan Malpensa International Airport (LIMC)

Arrival

Time 2026-05-04 16:22
Airport Zürich Airport (LSZH)
Time Latitude Longitude Altitude Speed Heading
2026-05-04 14:51 45.63147 8.71352 759 ft 0 kts 169°
2026-05-04 15:19 45.63155 8.71350 753 ft 4 kts 169°
2026-05-04 15:20 45.63182 8.71343 753 ft 4 kts 169°
2026-05-04 15:20 45.63206 8.71337 754 ft 3 kts 169°
2026-05-04 15:20 45.63227 8.71325 753 ft 4 kts 118°
2026-05-04 15:20 45.63230 8.71291 754 ft 4 kts 78°
2026-05-04 15:21 45.63227 8.71274 754 ft 0 kts 81°
2026-05-04 15:21 45.63228 8.71274 754 ft 0 kts 81°
2026-05-04 15:24 45.63230 8.71300 754 ft 9 kts 83°
2026-05-04 15:25 45.63242 8.71425 758 ft 14 kts 81°
2026-05-04 15:25 45.63263 8.71566 754 ft 8 kts 78°
2026-05-04 15:25 45.63263 8.71571 755 ft 1 kts 78°
2026-05-04 15:26 45.63269 8.71649 756 ft 0 kts 90°
2026-05-04 15:27 45.63269 8.71661 756 ft 12 kts 91°
2026-05-04 15:28 45.63268 8.71676 756 ft 0 kts 94°
2026-05-04 15:29 45.63266 8.71697 754 ft 17 kts 97°
2026-05-04 15:30 45.63257 8.71750 754 ft 0 kts 108°
2026-05-04 15:33 45.63257 8.71751 754 ft 2 kts 108°
2026-05-04 15:34 45.63252 8.71767 754 ft 3 kts 114°
2026-05-04 15:34 45.63252 8.71768 754 ft 0 kts 118°
2026-05-04 15:34 45.63193 8.71867 754 ft 0 kts 148°
2026-05-04 15:35 45.63024 8.71925 754 ft 18 kts 172°
2026-05-04 15:35 45.62908 8.71959 754 ft 17 kts 168°
2026-05-04 15:35 45.62778 8.71995 754 ft 21 kts 169°
2026-05-04 15:36 45.62480 8.72079 755 ft 20 kts 171°
2026-05-04 15:36 45.62431 8.72089 755 ft 1 kts 172°
2026-05-04 15:36 45.62382 8.72103 757 ft 13 kts 169°
2026-05-04 15:37 45.62303 8.72125 754 ft 0 kts 168°
2026-05-04 15:37 45.62288 8.72130 755 ft 0 kts 168°
2026-05-04 15:37 45.62200 8.72154 756 ft 22 kts 167°
2026-05-04 15:37 45.62039 8.72200 758 ft 25 kts 169°
2026-05-04 15:38 45.61970 8.72218 754 ft 3 kts 169°
2026-05-04 15:38 45.61929 8.72230 754 ft 9 kts 169°
2026-05-04 15:38 45.61904 8.72236 757 ft 5 kts 169°
2026-05-04 15:38 45.61855 8.72250 758 ft 9 kts 169°
2026-05-04 15:39 45.61782 8.72269 756 ft 12 kts 169°
2026-05-04 15:39 45.61691 8.72295 756 ft 11 kts 169°
2026-05-04 15:39 45.61530 8.72340 756 ft 19 kts 168°
2026-05-04 15:40 45.61460 8.72356 756 ft 0 kts 173°
2026-05-04 15:40 45.61459 8.72357 758 ft 3 kts 173°
2026-05-04 15:40 45.61406 8.72334 756 ft 15 kts 223°
2026-05-04 15:40 45.61335 8.72201 755 ft 19 kts 190°
2026-05-04 15:41 45.61156 8.72241 756 ft 27 kts 168°
2026-05-04 15:41 45.60983 8.72288 756 ft 34 kts 169°
2026-05-04 15:41 45.60791 8.72342 755 ft 29 kts 172°
2026-05-04 15:41 45.60643 8.72478 756 ft 26 kts 106°
2026-05-04 15:42 45.60629 8.72613 754 ft 24 kts 97°
2026-05-04 15:42 45.60615 8.72790 760 ft 19 kts 97°
2026-05-04 15:42 45.60598 8.73033 756 ft 41 kts 94°
2026-05-04 15:42 45.60705 8.73309 756 ft 30 kts 20°
2026-05-04 15:43 45.60888 8.73402 756 ft 26 kts 359°
2026-05-04 15:43 45.60980 8.73386 759 ft 1 kts 349°
2026-05-04 15:43 45.61001 8.73379 758 ft 0 kts 348°
2026-05-04 15:43 45.61033 8.73370 758 ft 18 kts 348°
2026-05-04 15:44 45.61296 8.73294 755 ft 42 kts 350°
2026-05-04 15:44 45.61557 8.73221 756 ft 27 kts 360°
2026-05-04 15:44 45.61628 8.73359 758 ft 16 kts 77°
2026-05-04 15:44 45.61602 8.73498 755 ft 15 kts 114°
2026-05-04 15:45 45.61587 8.73582 753 ft 1 kts 97°
2026-05-04 15:45 45.61594 8.73659 749 ft 23 kts 69°
2026-05-04 15:45 45.61704 8.73714 747 ft 13 kts 346°
2026-05-04 15:45 45.61775 8.73693 748 ft 9 kts 345°
2026-05-04 15:46 45.61970 8.73641 749 ft 64 kts 350°
2026-05-04 15:46 45.62655 8.73450 750 ft 134 kts 349°
2026-05-04 15:46 45.63749 8.73170 994 ft 172 kts 350°
2026-05-04 15:46 45.64935 8.72890 1789 ft 177 kts 351°
2026-05-04 15:47 45.66223 8.72588 2433 ft 199 kts 351°
2026-05-04 15:47 45.67659 8.72786 3084 ft 218 kts 25°
2026-05-04 15:47 45.69083 8.73686 3766 ft 232 kts 18°
2026-05-04 15:47 45.70697 8.74284 4128 ft 252 kts 12°
2026-05-04 15:48 45.72455 8.74735 4709 ft 261 kts 10°
2026-05-04 15:48 45.74275 8.75157 5389 ft 266 kts 11°
2026-05-04 15:48 45.76042 8.75591 6029 ft 270 kts 11°
2026-05-04 15:49 45.76266 8.75649 6112 ft 271 kts 12°
2026-05-04 15:49 45.78141 8.76160 6778 ft 275 kts 13°
2026-05-04 15:49 45.80011 8.76708 7382 ft 281 kts 13°
2026-05-04 15:49 45.81945 8.77302 8029 ft 287 kts 14°
2026-05-04 15:50 45.83919 8.77923 8650 ft 293 kts 14°
2026-05-04 15:50 45.85940 8.78564 9287 ft 300 kts 14°
2026-05-04 15:50 45.86037 8.78595 9322 ft 301 kts 14°
2026-05-04 15:51 45.88047 8.79230 9971 ft 307 kts 14°
2026-05-04 15:51 45.90163 8.79898 10464 ft 317 kts 14°
2026-05-04 15:52 45.92376 8.80602 10749 ft 334 kts 13°
2026-05-04 15:52 45.94703 8.81344 11036 ft 348 kts 13°
2026-05-04 15:52 45.97112 8.82110 11311 ft 362 kts 13°
2026-05-04 15:52 45.99617 8.82911 11664 ft 372 kts 13°
2026-05-04 15:53 46.02125 8.83721 12196 ft 375 kts 12°
2026-05-04 15:53 46.04725 8.84538 12768 ft 379 kts 12°
2026-05-04 15:53 46.07276 8.85331 13301 ft 382 kts 11°
2026-05-04 15:53 46.09893 8.86147 13816 ft 386 kts 11°
2026-05-04 15:54 46.12530 8.86973 14245 ft 390 kts 11°
2026-05-04 15:54 46.15205 8.87752 14612 ft 392 kts
2026-05-04 15:54 46.17921 8.87908 15072 ft 391 kts 357°
2026-05-04 15:54 46.20651 8.87725 15577 ft 393 kts 354°
2026-05-04 15:55 46.23353 8.87403 16012 ft 395 kts 352°
2026-05-04 15:55 46.26105 8.86997 16399 ft 399 kts 352°
2026-05-04 15:55 46.28879 8.86559 16850 ft 401 kts 351°
2026-05-04 15:55 46.31661 8.86105 17367 ft 403 kts 352°
2026-05-04 15:56 46.34463 8.85650 17766 ft 407 kts 352°
2026-05-04 15:56 46.37290 8.85201 18282 ft 409 kts 352°
2026-05-04 15:56 46.40127 8.84761 18674 ft 411 kts 351°
2026-05-04 15:56 46.42999 8.84325 18939 ft 416 kts 351°
2026-05-04 15:57 46.45845 8.83894 19356 ft 417 kts 352°
2026-05-04 15:57 46.48742 8.83459 19786 ft 419 kts 352°
2026-05-04 15:57 46.51658 8.83022 20165 ft 422 kts 352°
2026-05-04 15:57 46.54598 8.82581 20566 ft 424 kts 352°
2026-05-04 15:58 46.57545 8.82137 20946 ft 427 kts 352°
2026-05-04 15:58 46.60525 8.81687 21277 ft 431 kts 352°
2026-05-04 15:58 46.63482 8.81230 21596 ft 433 kts 352°
2026-05-04 15:58 46.66477 8.80752 22005 ft 434 kts 352°
2026-05-04 15:59 46.69503 8.80275 22336 ft 437 kts 352°
2026-05-04 15:59 46.72553 8.79800 22624 ft 441 kts 352°
2026-05-04 15:59 46.75609 8.79330 22986 ft 442 kts 352°
2026-05-04 15:59 46.78648 8.78866 23339 ft 444 kts 352°
2026-05-04 16:00 46.81734 8.78393 23609 ft 448 kts 353°
2026-05-04 16:00 46.84846 8.77919 23915 ft 449 kts 353°
2026-05-04 16:00 46.87957 8.77444 24022 ft 449 kts 352°
2026-05-04 16:00 46.91067 8.76968 24015 ft 449 kts 352°
2026-05-04 16:01 46.94183 8.76490 24014 ft 450 kts 352°
2026-05-04 16:01 46.97290 8.76012 23713 ft 449 kts 353°
2026-05-04 16:01 47.00415 8.75519 23025 ft 452 kts 352°
2026-05-04 16:01 47.03504 8.75025 22350 ft 449 kts 352°
2026-05-04 16:02 47.06600 8.74531 21711 ft 445 kts 352°
2026-05-04 16:02 47.09651 8.73945 21066 ft 439 kts 348°
2026-05-04 16:02 47.15596 8.72284 19777 ft 430 kts 347°
2026-05-04 16:03 47.18493 8.71483 19146 ft 427 kts 347°
2026-05-04 16:03 47.21404 8.70693 18512 ft 423 kts 347°
2026-05-04 16:03 47.24289 8.69919 17807 ft 420 kts 347°
2026-05-04 16:03 47.27105 8.68932 17138 ft 413 kts 339°
2026-05-04 16:04 47.29747 8.67324 16491 ft 406 kts 334°
2026-05-04 16:04 47.34788 8.63857 15232 ft 398 kts 334°
2026-05-04 16:04 47.37269 8.62079 14545 ft 395 kts 330°
2026-05-04 16:05 47.39640 8.60069 13941 ft 391 kts 328°
2026-05-04 16:05 47.41965 8.57999 13301 ft 388 kts 327°
2026-05-04 16:05 47.45581 8.52403 12001 ft 373 kts 294°
2026-05-04 16:06 47.46358 8.48795 11411 ft 366 kts 279°
2026-05-04 16:06 47.47294 8.39155 10966 ft 342 kts 276°
2026-05-04 16:07 47.47713 8.34720 10989 ft 316 kts 276°
2026-05-04 16:07 47.48576 8.25571 10977 ft 295 kts 276°
2026-05-04 16:08 47.48858 8.22573 10982 ft 295 kts 276°
2026-05-04 16:08 47.48139 8.13814 10951 ft 282 kts 238°
2026-05-04 16:09 47.45291 8.10622 10930 ft 258 kts 194°
2026-05-04 16:09 47.41832 8.11430 10694 ft 262 kts 150°
2026-05-04 16:10 47.39739 8.15723 10123 ft 267 kts 104°
2026-05-04 16:11 47.40083 8.24252 8996 ft 287 kts 87°
2026-05-04 16:11 47.40300 8.27148 8633 ft 286 kts 87°
2026-05-04 16:12 47.40898 8.35830 7693 ft 281 kts 88°
2026-05-04 16:12 47.41459 8.44357 6782 ft 277 kts 88°
2026-05-04 16:13 47.41825 8.49959 6296 ft 265 kts 88°
2026-05-04 16:13 47.42161 8.55092 6112 ft 237 kts 88°
2026-05-04 16:14 47.42459 8.59679 5902 ft 215 kts 87°
2026-05-04 16:14 47.42730 8.63893 5719 ft 201 kts 87°
2026-05-04 16:15 47.43117 8.70047 5214 ft 200 kts 87°
2026-05-04 16:16 47.43372 8.74124 4858 ft 199 kts 86°
2026-05-04 16:16 47.44654 8.79513 3962 ft 183 kts 26°
2026-05-04 16:17 47.46669 8.78647 2892 ft 163 kts 288°
2026-05-04 16:18 47.45667 8.74154 2722 ft 164 kts 247°
2026-05-04 16:18 47.45174 8.72632 2919 ft 161 kts 246°
2026-05-04 16:19 47.44845 8.68640 2959 ft 140 kts 277°
2026-05-04 16:19 47.45047 8.65874 2957 ft 130 kts 277°
2026-05-04 16:20 47.45289 8.61943 2340 ft 128 kts 276°
2026-05-04 16:20 47.45487 8.59304 1801 ft 131 kts 279°
2026-05-04 16:21 47.45764 8.55574 1410 ft 93 kts 275°
2026-05-04 16:22 47.45839 8.54528 1406 ft 35 kts 280°
2026-05-04 16:22 47.45942 8.54318 1415 ft 3 kts 53°
2026-05-04 16:23 47.45936 8.54610 1413 ft 22 kts 91°
2026-05-04 16:24 47.45993 8.55152 1407 ft 12 kts 90°
2026-05-04 16:25 47.45976 8.55361 1409 ft 11 kts 98°
2026-05-04 16:26 47.46005 8.55635 1411 ft 6 kts 16°
2026-05-04 16:26 47.46042 8.55643 1405 ft 0 kts